This demonstration page uses our WeatherBlox Daily Observations layout. Learn more.

Left ArrowRight Arrow

53.62937, 11.41316

Hourly Observations for October 19, 2015

Temp ( °F °C ) Dew Point ( °F °C ) Humidity (%) Winds ( mph kmh ) Pressure ( in mb ) Visibility ( mi km ) Precip ( " mm )
6:20 am 06:20 Cloudy with Mist and Fog 48 9 48 9 100 100 NNE 3 6 30.09 1019 2 4 N/A
6:50 am 06:50 Mostly Cloudy 48 9 48 9 100 100 NNE 3 6 30.09 1019 4 6 N/A
7:20 am 07:20 Cloudy 50 10 48 9 94 94 NNE 3 6 30.09 1019 4 7 N/A
7:50 am 07:50 Cloudy 50 10 48 9 94 94 NNE 5 7 30.09 1019 4 7 N/A
8:20 am 08:20 Cloudy 50 10 48 9 94 94 NNE 6 9 30.09 1019 4 7 N/A
8:50 am 08:50 Mostly Cloudy 48 9 46 8 94 94 NNE 6 9 30.09 1019 5 8 N/A
9:20 am 09:20 Mostly Cloudy 46 8 46 8 100 100 VRB 2 4 30.12 1020 4 6 N/A
9:50 am 09:50 Mostly Cloudy 50 10 48 9 94 94 VRB 2 4 30.12 1020 4 7 N/A
10:20 am 10:20 Mostly Cloudy 50 10 48 9 94 94 NNE 7 11 30.12 1020 30 48 N/A
10:50 am 10:50 Mostly Cloudy 52 11 48 9 88 88 NNE 8 13 30.12 1020 30 48 N/A
11:20 am 11:20 Mostly Cloudy 52 11 48 9 88 88 NNE 7 11 30.12 1020 30 48 N/A
11:50 am 11:50 Mostly Cloudy 52 11 48 9 88 88 NE 8 13 30.15 1021 30 48 N/A
12:20 pm 12:20 Mostly Cloudy 52 11 48 9 88 88 NE 9 15 30.15 1021 30 48 N/A
12:50 pm 12:50 Partly Cloudy 54 12 48 9 82 82 NE 10 17 30.15 1021 30 48 N/A
1:20 pm 13:20 Mostly Cloudy 54 12 46 8 77 77 N 6 9 30.15 1021 30 48 N/A
1:50 pm 13:50 Cloudy 54 12 48 9 82 82 NNE 6 9 30.12 1020 30 48 N/A
2:20 pm 14:20 Mostly Cloudy 54 12 48 9 82 82 N 5 7 30.12 1020 30 48 N/A
2:50 pm 14:50 Mostly Cloudy 54 12 48 9 82 82 NNE 5 7 30.12 1020 30 48 N/A
3:20 pm 15:20 Mostly Cloudy 54 12 48 9 82 82 N 5 7 30.12 1020 30 48 N/A
3:50 pm 15:50 Mostly Cloudy 54 12 48 9 82 82 NNE 3 6 30.12 1020 30 48 N/A
4:20 pm 16:20 Mostly Cloudy 54 12 48 9 82 82 NNE 3 6 30.12 1020 30 48 N/A
4:50 pm 16:50 Cloudy 54 12 48 9 82 82 NNE 5 7 30.12 1020 30 48 N/A
5:20 pm 17:20 Cloudy 52 11 48 9 88 88 N 2 4 30.12 1020 30 48 N/A
5:50 pm 17:50 Cloudy 52 11 48 9 88 88 N 2 4 30.12 1020 30 48 N/A
6:20 pm 18:20 Cloudy 52 11 48 9 88 88 VRB 2 4 30.15 1021 30 48 N/A
6:50 pm 18:50 Mostly Cloudy 52 11 50 10 94 94 N 5 7 30.15 1021 30 48 N/A

Powered by AerisWeather